Terug naar catalogus

COSMOS 970 DEB

ActiefLEO
NORAD 64986·DEBRIS·🇷🇺 Russia

Gelanceerd Dec 21, 1977 vanaf Baikonur Cosmodrome

Loading…

Volgende Passages (komende 24 uur)

TLE

VersSource: Space-Track

Epoch: Sep 13, 2026, 09:47 UTC

1 64986U 77121CX  26256.40771100  .00000195  00000-0  30225-3 0  9992
2 64986  65.7752 246.6934 0099238   0.8200  73.1058 13.69881542628649

Volg COSMOS 970 DEB in realtime met AllMySat

Download on the App Store